Regional Weather Roundup
Issued by NWS

Home | Current Version | Previous Version | Text Only | Print | Product List | Glossary On
Versions: 1 2 3 4 5 6 7 8 9 10 11 12 13 14 15 16 17 18 19 20 21 22 23 24 25 26 27 28 29 30 31 32 33 34 35 36 37 38 39 40 41 42 43 44 45 46 47 48 49 50
000
ASUS43 KLMK 221510
RWRKY
KENTUCKY REGIONAL WEATHER ROUNDUP
NATIONAL WEATHER SERVICE LOUISVILLE KY
1100 AM EDT FRI JUL 22 2016

NOTE "FAIR" INDICATES FEW OR NO CLOUDS BELOW 12,000 FEET
WITH NO SIGNIFICANT WEATHER AND/OR OBSTRUCTIONS TO VISIBILITY.

KYZ001>023-026-027-061>063-070>075-221600-
WESTERN AND SOUTH CENTRAL KENTUCKY

CITY           SKY/WX    TMP DP  RH WIND       PRES   REMARKS
PADUCAH        CLOUDY    88  77  69 W7        30.05F HX 100
HENDERSON      CLOUDY    75  70  83 W5        30.07R
OWENSBORO      CLOUDY    83  76  79 W6        30.07R HX  91
HOPKINSVILLE   CLOUDY    86  76  71 W8        30.07S HX  96
BOWLING GREEN  CLOUDY    88  75  65 W3        30.07F HX  97
GLASGOW        MOSUNNY   85  74  70 W5        30.08F HX  92
$$

KYZ024-025-028>034-038-045-046-053-221600-
NORTH CENTRAL KENTUCKY

CITY           SKY/WX    TMP DP  RH WIND       PRES   REMARKS
LOUISVILLE/SDF LGT RAIN  82  73  74 SW7       30.03F
LOUISVILLE/LOU CLOUDY    82  72  71 SW5       30.04F
FORT KNOX      CLOUDY    79  74  83 SW5       30.05F
$$

KYZ035>037-039>044-047>052-055>060-089>105-221600-
NORTHEAST KENTUCKY

CITY           SKY/WX    TMP DP  RH WIND       PRES   REMARKS
LEXINGTON      CLOUDY    86  73  65 W7        30.09F HX  93
COVINGTON      CLOUDY    83  75  77 SW8       30.05F HX  90
FRANKFORT      CLOUDY    84  73  69 SW7       30.06F HX  90
$$

KYZ054-064>069-076>088-106>120-221600-
SOUTHEAST KENTUCKY

CITY           SKY/WX    TMP DP  RH WIND       PRES   REMARKS
JACKSON        SUNNY     83  68  60 CALM      30.13S
LONDON         SUNNY     83  68  60 VRB3      30.12F
SOMERSET       CLOUDY    81  70  69 W5        30.12F
MIDDLESBORO    MOSUNNY   80  71  72 CALM      30.13F
MONTICELLO     MOSUNNY  N/A N/A N/A W9G16     30.13S
$$





USA.gov is the U.S. government's official web portal to all federal, state and local government web resources and services.